Regional Weather Roundup
Issued by NWS Midland/Odessa, TX

Skip options and go directly to product.
Home | Oldest Version | Previous Version | Current Version | All | Text Only | Save Text | Print | Product List | Glossary On

Skip product version selection by date and time.   
447
ASUS44 KMAF 210601
RWRMAF
MIDLAND AREA WEATHER ROUNDUP
NATIONAL WEATHER SERVICE MIDLAND TX
1200 AM CST TUE FEB 21 2017

...IN SOUTHWEST TEXAS AND SOUTHEAST NEW MEXICO...

CITY           SKY/WX    TMP DP  RH WIND       PRES   REMARKS
ALPINE         CLEAR     51  26  38 W8        30.28S
ANDREWS        FAIR      47  27  44 W6        30.13S
ARTESIA        CLEAR     46  28  49 VRB5      30.16S
BIG SPRING     CLEAR     43  28  55 CALM      30.12R
CARLSBAD       CLEAR     53  28  38 W8        30.14S
DRYDEN           N/A     54  31  41 W10       30.12R
FORT STOCKTON  CLEAR     54  25  32 W12       30.16S
GUAD PASS      CLEAR     48  25  40 SW15      30.26S
HOBBS          CLEAR     46  19  34 W7        30.16S
MARFA          CLEAR     42  25  50 W8        30.27S WCI  37
MIDLAND AIRPK  CLEAR     49  31  48 W6        30.11F
MIDLAND INTL   CLEAR     47  32  56 W7        30.11S
ODESSA           N/A     48  27  44 NW6       30.12S
PECOS          CLEAR     50  26  40 W8        30.15S
PRESIDIO       FAIR      50  26  39 NW5       30.24R
SEMINOLE       CLEAR     42  27  54 CALM      30.14R
SNYDER         CLEAR     52  23  32 NW8       30.07S
WINK           CLEAR     48  25  40 W6        30.12S
$$
...OTHER STATIONS IN TEXAS...

CITY           SKY/WX    TMP DP  RH WIND       PRES   REMARKS
ABILENE        CLEAR     51  36  56 NW3       30.01S
AMARILLO       CLEAR     42  17  36 W8        30.11R WCI  37
AUSTIN         PTCLDY    60  57  89 S10       29.94F
BROWNSVILLE    FOG       59  58  96 SW3       30.05S VSB 1
CORPUS CHRISTI CLEAR     60  60 100 S9        30.01F
DALLAS FTW     CLEAR     58  56  93 SW10      29.89F
DEL RIO        CLEAR     57  41  55 NW5       30.06S
EL PASO        CLEAR     57  27  31 CALM      30.25R
HOUSTON INT    FOG       58  57  97 SE5       29.98F VSB 1
LUBBOCK        CLEAR     43  24  47 NW7       30.10S WCI  39
SAN ANGELO     PTCLDY    49  35  58 W10       30.05R
SAN ANTONIO    PTCLDY    57  43  59 NW3       29.98R
WACO           CLEAR     55  55 100 MISG      29.93S
WICHITA FALLS  NOT AVBL
$$
...OTHER LOCATIONS IN NEW MEXICO...

CITY           SKY/WX    TMP DP  RH WIND       PRES   REMARKS
ALAMAGORDO     CLEAR     46  23  39 NE8       30.26S
ALBUQUERQUE    CLEAR     48  29  47 N6        30.30R
CANNON AFB     CLOUDY    41  22  46 CALM      30.14F
CLOVIS         CLOUDY    37  23  56 W9        30.13S WCI  31
HOLLOMAN AFB   CLEAR     42  26  52 E8        30.29R WCI  37
ROSWELL        CLEAR     48  24  39 W9          N/A
RUIDOSO        CLOUDY    43  19  39 NW5       30.29F
SANTA FE       CLEAR     38  23  55 N9        30.29R WCI  31
TRUTH OR CONSE CLEAR     48  30  49 W6        30.28R
TUCUMCARI      CLEAR     38  20  48 CALM      30.12S
$$

  • National Weather Service
  • Southern Region Headquarters
  • 819 Taylor Street, Room 10A06
  • Fort Worth, TX 76102
  • Page Author: NWS Fort Worth
  • Web Master: SR-SRH.Webmaster@noaa.gov
  •  
  • Page last modified: 30-Sep-2016 6:36 PM UTC
USA.gov is the U.S. government's official web portal to all federal, state and local government web resources and services.